Retour au catalogue

GEESAT 5-01

ActifCommunicationsLEO
NORAD 65550·PAYLOAD·🇨🇳 China

Lancé Sep 8, 2025 depuis Yellow Sea Launch Area

Loading…

Prochains Passages (prochaines 24 heures)

TLE

FraisSource: Space-Track

Époque: Sep 14, 2026, 14:31 UTC

1 65550U 25201A   26257.60489121  .00001120  00000-0  15860-3 0  9991
2 65550  49.9935 344.7770 0002786  28.1252 331.9836 14.84394017 55089

Suivez GEESAT 5-01 en temps réel avec AllMySat

Download on the App Store